Regional Weather Roundup
Issued by NWS Wilmington, NC

Current Version | Previous Version | Text Only | Print | Product List | Glossary On
Versions: 1 2 3 4 5 6 7 8 9 10 11 12 13 14 15 16 17 18 19 20 21 22 23 24 25 26 27 28 29 30 31 32 33 34 35 36 37 38 39 40 41 42 43 44 45 46 47 48 49 50
000
ASUS42 KILM 010413
RWRILM
RWRILM
REGIONAL HOURLY WEATHER ROUNDUP
NATIONAL WEATHER SERVICE WILMINGTON NC
1200 AM EDT WED JUL 01 2015

NOTE: "FAIR" INDICATES FEW OR NO CLOUDS BELOW 12,000 FEET WITH NO
SIGNIFICANT WEATHER AND/OR OBSTRUCTIONS TO VISIBILITY.

...............WFO WILMINGTON COUNTY WARNING AREA...............

......COASTAL NC AND SC COUNTIES......

CITY           SKY/WX    TMP DP  RH WIND       PRES   REMARKS
WILMINGTON     CLOUDY    80  73  79 S10       29.95F
N MYRTLE BEACH MOCLDY    78  68  71 S10       29.98S
MYRTLE BEACH   MOCLDY    75  66  73 W3        30.00S

......INLAND NC AND SC COUNTIES.......

CITY           SKY/WX    TMP DP  RH WIND       PRES   REMARKS
LUMBERTON      MOCLDY    72  69  90 S7        29.95S
ELIZABETHTOWN  MOCLDY    71  71  99 S6        29.96R
WHITEVILLE     CLOUDY    72  69  92 S3        29.97F
FLORENCE       MOCLDY    71  69  93 SW8       29.98R
DARLINGTON     CLOUDY    72  66  83 SW7       29.99S

....................REST OF NORTH CAROLINA......................

.........EASTERN NC.........

CITY           SKY/WX    TMP DP  RH WIND       PRES   REMARKS
CAPE HATTERAS  PTCLDY    80  72  76 SW14G25   29.97S
JACKSONVILLE   CLOUDY    75  63  64 S6        29.95F
MOREHEAD CITY  MOCLDY    80  75  84 SW15      29.97S
KENANSVILLE    CLOUDY    73  65  78 CALM      29.95S
NEW BERN       CLOUDY    79  68  69 SW9       29.96F
ELIZABETH CITY MOCLDY    73  66  78 W10       29.93F HAZE

.........CENTRAL NC.........

CITY           SKY/WX    TMP DP  RH WIND       PRES   REMARKS
RALEIGH DURHAM MOCLDY    70  66  87 SW9       29.94R
ROCKY MOUNT    CLOUDY    73  67  81 SW6       29.90F
ROANOKE RAPIDS NOT AVBL
FAYETTEVILLE   PTCLDY    71  68  90 SW9       29.93F
HOFFMAN        MOCLDY    70  68  95 SW9       29.99S

.........WESTERN NC.........

CITY           SKY/WX    TMP DP  RH WIND       PRES   REMARKS
CHARLOTTE      CLOUDY    72  66  81 SW7       29.97S
GREENSBORO     MOCLDY    73  63  70 SW10      29.93S
HICKORY        NOT AVBL
BOONE          NOT AVBL
ASHEVILLE      NOT AVBL

.....................REST OF SOUTH CAROLINA.....................

.........EASTERN SC.........

CITY           SKY/WX    TMP DP  RH WIND       PRES   REMARKS
CHARLESTON     PTCLDY    72  69  90 SW6       30.00F
BEAUFORT MCAS  CLEAR     74  69  85 SW5       30.02R
HILTON HEAD    CLEAR     75  72  88 S6        30.03S

.........CENTRAL SC.........

CITY           SKY/WX    TMP DP  RH WIND       PRES   REMARKS
COLUMBIA       PTCLDY    72  69  90 SW3       29.97F
ORANGEBURG     MOCLDY    71  69  93 S5        29.99F FOG
SUMTER SHAW    MOCLDY    70  69  94 SW7       29.96S

.........WESTERN SC.........

CITY           SKY/WX    TMP DP  RH WIND       PRES   REMARKS
GREENVILLE     NOT AVBL
ROCK HILL      PTCLDY    69  67  93 SW8       29.98R
ANDERSON       MOCLDY    72  68  87 S7        29.99S
CLEMSON        NOT AVBL
GREENWOOD      PTCLDY    70  67  90 SW9       30.00S


...................COASTAL AND OFFSHORE REPORTS..................

................LOCAL PIERS AND NC RESERVE................


STATION/POSITION TIME  SKY/WX   TEMP    WIND        PRES    VSBY
                                AIR SEA DIR/SP/G
                 (UTC)          (F)     (DEG/KT/KT) (MB)    (MI)
JOHNY MRCER PIER 0300            81 82  210/ 13/ 15 1014.2F
NC RESRV MASNBRO NOT AVBL
OCEAN CREST PIER NOT AVBL
SPRINGMAID  PIER 0300            77 83  160/ 10/ 11 1015.3R


................COASTAL AND OFFSHORE BUOYS................


STATION/POSITION TIME  SKY/WX   TEMP    WIND        PRES    VSBY
                                AIR SEA DIR/SP/G
                 (UTC)          (F)     (DEG/KT/KT) (MB)    (MI)
DIMNDSHOAL 41025 0350            82 81  230/ 23/ 29 1014.5S
WVE H/P(F/S)=  5/ 6 WND WVE H/P(F/S)=  5/ 6 SWL H/P/D(F/S/D)=  2/230/12

CAPE LOOKOUT     0400            80     220/ 13/ 18 1014.9R
ONSLOW BAY 41036 NOT AVBL
5 WRITEBCH 41038 NOT AVBL
MASONBORO  41110 0319               79                N/A
WVE H/P(F/S)=  4/ 4 WND WVE H/P(F/S)=  3/ 4

WILM HARBR 41108 0311               81                N/A
WVE H/P(F/S)=  4/ 5 WND WVE H/P(F/S)=  3/ 5

27WRITEBCH 41037 0300               81  230/ 16/ 17   N/A
FRYING PAN 41013 0350            82 80  210/ 17/ 19 1015.9R
WVE H/P(F/S)=  4/ 5 WND WVE H/P(F/S)=  5/ 5 SWL H/P/D(F/S/D)=  2/120/ 8

SUNST NRSH 41024 0308            79     200/  2/  8 1015.1R
CAPRS NRSH 41029 0308            80     250/ 14/ 17 1016.2R
EDISTO     41004 0350            82 83  240/ 16/ 17 1015.4F
WVE H/P(F/S)=  4/ 5 WND WVE H/P(F/S)=  3/ 5 SWL H/P/D(F/S/D)=  2/ 9



..........OFFSHORE BUOYS BEYOND 100 NM OFFSHORE...........
.....IN A TRIANGLE---HAT TO BERMUDA TO BAHAMAS TO HAT.....


STATION/POSITION TIME  SKY/WX   TEMP    WIND        PRES    VSBY
                                AIR SEA DIR/SP/G
                 (UTC)          (F)     (DEG/KT/KT) (MB)    (MI)
150E HAT   41001 NOT AVBL
W BERMUDA  41048 0350            81 80  190/ 19/ 23 1021.8R
WVE H/P(F/S)=  6/ 6 WND WVE H/P(F/S)=  5/ 6 SWL H/P/D(F/S/D)=  2/170/12

ATLANTIC S 41049 0350            82 83  110/ 10/ 12 1026.3S
WVE H/P(F/S)=  4/ 9 WND WVE H/P(F/S)=  2/ 4 SWL H/P/D(F/S/D)=  3/150/ 9

E BAHAMAS  41046 0350            82 83  100/ 12/ 14 1023.1S
WVE H/P(F/S)=  5/ 8 WND WVE H/P(F/S)=  3/ 5 SWL H/P/D(F/S/D)=  5/120/ 8

NE BAHAMAS 41047 0350            83 83  140/ 16/ 19 1021.7F
WVE H/P(F/S)=  4/ 7 WND WVE H/P(F/S)=  3/ 7 SWL H/P/D(F/S/D)=  2/130/ 8

120E CANVRL41010 0320            80 84  260/  6/  8 1020.9R

END



USA.gov is the U.S. government's official web portal to all federal, state and local government web resources and services.